Location: Songkhla
(7.2000°N, 100.6000°E)
Time: 19:59:22
(UTC+07:00)

ISS - Pass Details

Date: 26 April 2026
Orbit: 414 x 424 km, 51.6° (Epoch: 19 May)

Event Time Altitude Azimuth Distance (km) Brightness Sun altitude
Rises 22:34:17 0° 191° (S) 2,337 - -57.4°
Reaches altitude 10° 22:36:47 10° 172° (S) 1,474 - -57.8°
Maximum altitude 22:39:12 19° 125° (SE) 1,059 - -58.3°
Drops below altitude 10° 22:41:36 10° 78° (ENE) 1,474 - -58.7°
Sets 22:44:06 0° 59° (ENE) 2,335 - -59.2°
